Gardner, LA (71431)

1:27 AM CDT on August 24, 2016 (GMT -0500)
Gardner | | Change Station
Active Advisory: Flood Warning

Elev 184 ft 31.27 °N, 92.68 °W | Updated 2 days ago

Clear
Clear
77 °F
Feels Like 77 °F
N
1
Wind Variable Wind from SW
Gusts mph

Today
High -- | Low -- °F
--% Chance of Precip.
Yesterday
High -- | Low -- °F
Precip. -- in
Pressure 30.14 in
Visibility 10.0 miles
Clouds Clear
Dew Point 75 °F
Humidity 96%
Rainfall in
Snow Depth Not available.
6:42 AM 7:43 PM
Waning Gibbous, 60% visible
METAR KAEX 240553Z 13003KT 10SM CLR 25/24 A3014 RMK AO2 SLP207 T02500244 10317 20250 403390222 51005
Pressure 30.14 in
Visibility 10.0 miles
Clouds Clear
Dew Point 75 °F
Humidity 96%
Rainfall in
Snow Depth Not available.
6:42 AM 7:43 PM
Waning Gibbous, 60% visible
METAR KAEX 240553Z 13003KT 10SM CLR 25/24 A3014 RMK AO2 SLP207 T02500244 10317 20250 403390222 51005

10-Day Weather Forecast

Almanac

Astronomy

Aug. 24, 2016 Rise Set
Actual Time
Civil Twilight
Nautical Twilight
Astronomical Twilight
Moon
Length of Visible Light
Length of Day
Tomorrow will be .
, % of the Moon is Illuminated

Today's Extremes

State Highs State Lows

Community

WunderPhotos

Upload Photos

1,934,554 photos uploaded!

WunderBlog® & News

Nearby

Air Quality

  Air Quality AQ Index Pollutant
Not available.

Snow Depth

Station Depth Elevation

Earthquake Activity

City Distance Mag. Time & Date
Minimum magnitude displayed is 2.5.

Coastal Water Temperatures

Place Temperature

Stations

Nearby Weather Stations

Station Location Temp. Windchill Dew Point Humidity Wind Precip. Elev Updated Type
                   

Watches & Warnings

Flood Warning
Issued: 9:05 PM CDT Aug. 23, 2016 – National Weather Service

The Flood Warning continues for
the Calcasieu River near Glenmora.
* Until further notice... or until the warning is cancelled.
* At 8:45 PM Tuesday the stage was 13.7 feet.
* Minor flooding is occurring and minor flooding is forecast.
* Flood stage is 12.0 feet.
* Forecast... the river will continue at a flat crest near 13.8
feet through Thursday morning, then begin a slow fall.
* Impact... at stages near 14.0 feet... some roads upstream from
Glenmora, including strothers crossing Road near the community of
Calcasieu and Price Crossing Road near Hineston have two to three
feet of water over the Road and are subject to being closed.
Flooding of forested areas near the river will also occur.


Lat... Lon 3113 9279 3090 9269 3090 9262 3105 9265 3115 9275